This is the latest recevied weather packets stored in our database for station/object KO4ZGL-13. If no packets are shown the sender has not sent any weather packets the latest 10 day(s).
| Time | Temp. | Humidity | Pressure | Rain* | Wind** | Luminosity | Snow |
|---|---|---|---|---|---|---|---|
| 1787664929 | 26.11° C | 94% | 1017.5 hPa | 0 mm | - | 283 W/m² | - |
| 1787664625 | 26.11° C | 95% | 1017.5 hPa | 0 mm | - | 322 W/m² | - |
| 1787664319 | 25.56° C | 97% | 1017.5 hPa | 0 mm | - | 227 W/m² | - |
| 1787664019 | 25.56° C | 97% | 1017.2 hPa | 0 mm | - | 230 W/m² | - |
| 1787663714 | 25° C | 98% | 1017.4 hPa | 0 mm | - | 285 W/m² | - |
| 1787663409 | 24.44° C | 99% | 1017.5 hPa | 0 mm | - | 252 W/m² | - |
| 1787663105 | 23.89° C | 99% | 1017.3 hPa | 0 mm | - | 197 W/m² | - |
| 1787662801 | 23.89° C | 99% | 1017.3 hPa | 0 mm | - | 248 W/m² | - |
| 1787662495 | 23.33° C | 99% | 1017.2 hPa | 0 mm | - | 103 W/m² | - |
| 1787662191 | 22.78° C | 99% | 1017.3 hPa | 0 mm | - | 79 W/m² | - |
| 1787661886 | 22.78° C | 99% | 1017.4 hPa | 0 mm | - | 81 W/m² | - |
| 1787661585 | 22.78° C | 99% | 1017.1 hPa | 0 mm | - | 68 W/m² | - |
| 1787661284 | 22.22° C | 99% | 1017.3 hPa | 0 mm | - | 63 W/m² | - |
| 1787660983 | 21.67° C | 99% | 1017.1 hPa | 0 mm | - | 59 W/m² | - |
| 1787660679 | 21.67° C | 99% | 1017.1 hPa | 0 mm | - | 57 W/m² | - |
| 1787660378 | 21.67° C | 99% | 1017 hPa | 0 mm | - | 54 W/m² | - |
| 1787660073 | 21.67° C | 99% | 1017 hPa | 0 mm | - | 50 W/m² | - |
| 1787659772 | 21.67° C | 99% | 1016.9 hPa | 0 mm | - | 48 W/m² | - |
| 1787659472 | 21.11° C | 99% | 1017.2 hPa | 0 mm | - | 43 W/m² | - |
| 1787659166 | 21.11° C | 99% | 1016.9 hPa | 0 mm | - | 39 W/m² | - |
| 1787658861 | 21.11° C | 99% | 1016.9 hPa | 0 mm | - | 36 W/m² | - |
| 1787658560 | 21.11° C | 99% | 1017.1 hPa | 0 mm | - | 29 W/m² | - |
| 1787658257 | 21.11° C | 99% | 1016.8 hPa | 0 mm | - | 32 W/m² | - |
| 1787657952 | 21.11° C | 99% | 1016.8 hPa | 0 mm | - | 27 W/m² | - |
| 1787657647 | 21.11° C | 99% | 1016.8 hPa | 0 mm | - | 23 W/m² | - |
* Rain latest hour (hover to see other rain measurements)
** Current wind speed in m/s (hover to see current wind gust speed)